THOR ABLESTAR DEB, 335

Orbit data source: Space-Track

THOR ABLESTAR DEB, 335 is space debris in LEO originally from a launch on Thu, 29 Jun 1961 UTC launched from the Air Force Eastern Test Range (AFETR). Debris objects in space refer to the collection of defunct objects orbiting the Earth. Examples of debris include non-operational satellites, rocket bodies, and fragments generated from explosions, collisions, or faulty payload assembly.

Loading next visibility...
Identifier
335, 1961-015DM
Orbit
LEO
Country
Flag of USUS
Related business
Manufacturer
Unknown
Mission
Spacecraft
Bus & Motor
Unknown
Mass
Unknown
Launch date (UTC)
1961-06-29 (65 years ago)
Launch vehicle
Unknown
Launch site
Air Force Eastern Test Range (AFETR)
Object type
Payload
Rocket body
Debris
Shape & HBR
Unknown shape, 0.1 m
Radar Cross Section
Small (<0.1 m²)

Expand to show TLE details & history
Last TLE update: 1 day ago

TLE from 1 day ago
0 THOR ABLESTAR DEB
1 00335U 61015DM  26135.30372109  .00000503  00000-0  25832-3 0  9997
2 00335  66.8389 214.1445 0039676 205.3603 154.5546 14.22909800322635
Epoch: 2026-05-15T07:17Z
TLE epoch observation values (Epoch: 2026-05-15T07:17:21.502Z)
Latitude
-0.00005°
Longitude
-128.23208°
Altitude
843.436 km
Speed
7.418 km/s
True Right ascension
14h 16m 34s
True Declination
0° 00' 00"
Sunlit
Object was in full shadow at epoch
Visualization orbit readout
Latitude
Unknown
Longitude
Unknown
Altitude
Unknown
Speed
Unknown
Apparent Right ascension
Unknown
Apparent Declination
Unknown
Sunlit
N/A
Visualization observer readout
Local Sidereal Time
16:31:39
Azimuth
Unknown
Elevation
Unknown
Doppler factor
Unknown
Orbital elements
Apogee altitude
842.428 km
Perigee altitude
785.358 km
Semi-major axis
7,192.03 km
Eccentricity
0.00397
Inclination
66.8389°
RAAN
214.1445°
Arg. of periapsis
205.3603°
True anomaly
154.74907°
Mean anomaly
154.5546°
Eccentric anomaly
154.65192°
Mean motion
3.55849 °/min
Orbital period
101.17 mins
BSTAR
0.00025832
Loading maneuver chart data...
Computing Atmospheric mass density...

Documentation

Showing up to 5 results
|